Buffalo, SD

6:21 PM MDT on July 27, 2017 (GMT -0600)
Buffalo

Weather History for K2WX - March, 2013

Change the Weather History Date:

Monday, March 4, 2013

  Actual Average Record
Temperature  
Mean Temperature 22 °F 28 °F  
Max Temperature 32 °F 39 °F 68 °F (2017)
Min Temperature 12 °F 18 °F -4 °F (2003)
Degree Days  
Heating Degree Days 43 37  
Month to date heating degree days 115 149  
Since 1 July heating degree days 5452 5946  
Cooling Degree Days 0 0  
Month to date cooling degree days 0 0  
Year to date cooling degree days 0 0  
Moisture  
Dew Point 15 °F    
Average Humidity 83    
Maximum Humidity 92    
Minimum Humidity 74    
Precipitation  
Precipitation 0.03 in 0.03 in 0.03 in (2013)
Month to date precipitation 0.04 0.06  
Year to date precipitation 0.19 0.63  
Sea Level Pressure  
Sea Level Pressure 29.93 in    
Wind  
Wind Speed 34 mph (WNW)    
Max Wind Speed 53 mph    
Max Gust Speed 61 mph    
T = Trace of Precipitation, MM = Missing Value Source: NWS Daily Summary

Daily Weather History Graph

Daily Weather History Graph

Search for Another Location

Airport or City:

Trip Planner

Search our weather history database for the weather conditions in past years. The results will help you decide how hot, cold, wet, or windy it might be!

Date:

Astronomy

Mar. 04, 2013 Rise Set
Actual Time 6:26 AM MST 5:45 PM MST
Civil Twilight 5:56 AM MST 6:15 PM MST
Nautical Twilight 5:22 AM MST 6:49 PM MST
Astronomical Twilight 4:48 AM MST 7:24 PM MST
Moon 12:51 AM MST (3/4) 10:16 AM MST (3/4)
Length of Visible Light 12h 18m
Length of Day
11h 19m
Waning Gibbous, 51% of the Moon is Illuminated
Mar 4
Waning Gibbous
Mar 4
Last Quarter
Mar 11
New
Mar 19
First Quarter
Mar 27
Full

Hourly Weather History & Observations

Time (MST) Temp. Windchill Dew Point Humidity Pressure Visibility Wind Dir Wind Speed Gust Speed Precip Events Conditions
12:56 AM 30.9 °F 18.1 °F 28.0 °F 89% 29.65 in - WNW 21.9 mph - N/A   Unknown
1:56 AM 28.9 °F 14.5 °F 23.0 °F 78% 29.67 in - WNW 25.3 mph - N/A   Unknown
2:56 AM 25.0 °F 10.9 °F 19.0 °F 78% 29.68 in - West 19.6 mph - N/A   Unknown
3:56 AM 24.1 °F 7.1 °F 17.1 °F 75% 29.68 in - West 28.8 mph - N/A   Unknown
4:56 AM 25.0 °F 8.1 °F 18.0 °F 75% 29.69 in - West 29.9 mph 36.8 mph N/A   Unknown
5:56 AM 24.1 °F 5.6 °F 19.0 °F 81% 29.69 in - West 35.7 mph 44.9 mph N/A   Unknown
6:56 AM 23.0 °F 4.1 °F 19.0 °F 85% 29.72 in - West 35.7 mph 43.7 mph N/A   Unknown
7:56 AM 21.9 °F 2.6 °F 17.1 °F 82% 29.73 in - West 35.7 mph 47.2 mph N/A   Unknown
8:56 AM 23.0 °F 3.7 °F 18.0 °F 81% 29.78 in - WNW 38.0 mph 44.9 mph N/A   Unknown
9:56 AM 21.9 °F 2.6 °F 15.1 °F 75% 29.79 in - WNW 35.7 mph 46.0 mph N/A   Unknown
10:56 AM 21.9 °F 1.3 °F 17.1 °F 82% 29.82 in - WNW 42.6 mph 49.5 mph N/A   Unknown
11:56 AM 21.0 °F 0.5 °F 16.0 °F 81% 29.83 in - WNW 40.3 mph 49.5 mph N/A   Unknown
12:56 PM 21.0 °F -0.2 °F 16.0 °F 81% 29.86 in - NW 43.7 mph 55.2 mph N/A   Unknown
1:56 PM 19.9 °F -0.3 °F 16.0 °F 85% 29.92 in - NW 36.8 mph 49.5 mph N/A   Unknown
2:56 PM 19.0 °F -2.5 °F 14.0 °F 81% 29.99 in - NW 41.4 mph 49.5 mph N/A   Unknown
3:56 PM 18.0 °F -4.2 °F 12.9 °F 81% 30.06 in - NW 42.6 mph 52.9 mph 0.01 in   Unknown
4:56 PM 17.1 °F -5.0 °F 12.0 °F 81% 30.09 in - NW 40.3 mph 56.4 mph N/A   Unknown
5:56 PM 16.0 °F -7.0 °F 12.0 °F 84% 30.14 in - NW 42.6 mph 51.8 mph N/A   Unknown
6:56 PM 16.0 °F -8.1 °F 10.9 °F 81% 30.17 in - NW 48.3 mph 57.5 mph 0.01 in   Unknown
7:56 PM 15.1 °F -5.9 °F 10.9 °F 84% 30.22 in - NW 32.2 mph 44.9 mph N/A   Unknown
8:56 PM 14.0 °F -7.4 °F 9.0 °F 80% 30.25 in - NW 32.2 mph 41.4 mph 0.01 in   Unknown
9:56 PM 12.9 °F -8.3 °F 8.1 °F 81% 30.29 in - NW 29.9 mph 34.5 mph N/A   Unknown
10:56 PM 12.0 °F -7.7 °F 7.0 °F 80% 30.31 in - NW 24.2 mph 33.4 mph N/A   Unknown
11:56 PM 12.9 °F -6.1 °F 8.1 °F 81% 30.34 in - WNW 23.0 mph 33.4 mph N/A   Unknown